Regional Weather Roundup
Issued by NWS

Home | Current Version | Previous Version | Graphics & Text | Print | Product List | Glossary On
Versions: 1 2 3 4 5 6 7 8 9 10 11 12 13 14 15 16 17 18 19 20 21 22 23 24 25 26 27 28 29 30 31 32 33 34 35 36 37 38 39 40 41 42 43 44 45 46 47 48 49 50
000
ASUS43 KMPX 221910
RWRMN
WEATHER ROUNDUP FOR MINNESOTA
NATIONAL WEATHER SERVICE TWIN CITIES/CHANHASSEN MN
200 PM CDT FRI MAY 22 2015


NOTE: "FAIR" INDICATES FEW OR NO CLOUDS BELOW 12,000 FEET WITH NO
SIGNIFICANT WEATHER AND/OR OBSTRUCTIONS TO VISIBILITY. N/A MEANS
CURRENT SKY AND/OR WEATHER CONDITIONS ARE NOT AVAILABLE.

MNZ060>063-068>070-222000-
   Twin Cities Metro

CITY           SKY/WX    TMP DP  RH WIND       PRES   REMARKS
TWIN CITIES    SUNNY     72  34  24 N5        30.22S
ST PAUL        SUNNY     70  36  28 SW5       30.22S
CRYSTAL        SUNNY     72  33  24 VRB3      30.21S
BLAINE         SUNNY     72  34  25 CALM      30.22S
LAKEVILLE      SUNNY     70  39  32 CALM      30.22S
EDEN PRAIRIE   SUNNY     72  36  26 VRB6      30.21S
SOUTH ST PAUL  SUNNY     71  33  25 N3        30.22S
LAKE ELMO      FAIR      70  39  32 W3        30.23S
$$
MNZ001>005-007-008-013>017-022>024-027-028-222000-
   Northwest Minnesota

CITY           SKY/WX    TMP DP  RH WIND       PRES   REMARKS
BEMIDJI        SUNNY     70  33  25 E5        30.17F
HALLOCK        SUNNY     75  39  27 S12       30.12F
ROSEAU         SUNNY     73  39  29 W13       30.13F
WARROAD        SUNNY     72  43  35 SW7       30.13F
THIEF RVR FALL SUNNY     72  36  26 SW6       30.17F
CROOKSTON      SUNNY     73  36  25 S9        30.17F
FOSSTON        SUNNY     72  34  25 CALM      30.19S
DETROIT LAKES  SUNNY     70  32  24 W3        30.21F
MOORHEAD       SUNNY     70  39  32 SW3       30.20F
PARK RAPIDS    SUNNY     73  30  20 CALM      30.19F
MAHNOMEN       FAIR      71  35  26 SW5       30.19S
$$
MNZ006-009>011-018-025>026-222000-
   North Central Minnesota

CITY           SKY/WX    TMP DP  RH WIND       PRES   REMARKS
BAUDETTE       SUNNY     73  37  27 MISG      30.13F
FLAG ISLAND    SUNNY     59  45  58 S15       30.10F
INTL FALLS     SUNNY     71  31  22 VRB6      30.14F
WASKISH        SUNNY     68  39  34 SW7       30.17F
BIG FORK       SUNNY     73  36  25 S6        30.17S
LONGVILLE      SUNNY     70  32  24 SW6       30.20S
GRAND RAPIDS   SUNNY     66  34  30 CALM      30.20S
CRANE LAKE     SUNNY     66  27  22 N5        30.17S
ORR            SUNNY     70  27  19 NW3       30.14F
COOK           SUNNY     68  32  26 W6        30.17F
WALKER         FAIR      69  31  24 E6        30.18F
$$
MNZ012-019>021-037-222000-
   Northeast Minnesota

CITY           SKY/WX    TMP DP  RH WIND       PRES   REMARKS
DULUTH         SUNNY     69  33  26 VRB3      30.19S
ELY            SUNNY     66  28  24 SW8       30.17S
HIBBING        SUNNY     69  30  23 VRB6      30.18S
EVELETH        SUNNY     66  30  26 SE5       30.19S
DULUTH HARBOR  SUNNY     48  37  66 NE9       30.22S
TWO HARBORS    SUNNY     64  39  39 SE9       30.19S
SILVER BAY     SUNNY     61  32  33 S9G17     30.18F
GRAND MARAIS     N/A     42  34  73 E3        30.24S
G MARAIS ARPRT SUNNY     55  25  30 S9        30.21R
$$
MNZ029>031-032-039>041-046>048-054>057-064-222000-
   West Central Minnesota

CITY           SKY/WX    TMP DP  RH WIND       PRES   REMARKS
FERGUS FALLS   SUNNY     72  36  26 SE8       30.20S
WHEATON        SUNNY     72  32  23 SE6       30.21F
MORRIS         SUNNY     73  34  23 S6        30.20S
ALEXANDRIA     SUNNY     68  34  28 S5        30.23S
ELBOW LAKE     FAIR      70  34  26 CALM      30.20F
WADENA         SUNNY     70  37  30 CALM      30.20S
GLENWOOD       SUNNY     70  36  28 W5        30.23S
APPLETON       SUNNY     73  36  25 SE6       30.20S
BENSON         SUNNY     72  32  23 S7        30.21S
ORTONVILLE     SUNNY     72  32  23 E6        30.20S
MADISON        SUNNY     73  32  21 NW5       30.19F
WILLMAR        FAIR      72  36  26 SE9       30.23S
$$
MNZ033>034-036-042>043-049>051-058-059-222000-
   Central Minnesota

CITY           SKY/WX    TMP DP  RH WIND       PRES   REMARKS
ST CLOUD       SUNNY     70  33  25 VRB3      30.22S
SAUK CENTRE    FAIR      69  36  30 SE3       30.22S
PAYNESVILLE    SUNNY     66  33  28 E7        30.23S
AITKIN         SUNNY     72  19  14 SW3       30.19F
PINE RIVER     SUNNY     70  39  32 S5        30.22F
BRAINERD       SUNNY     69  34  27 VRB7      30.21S
STAPLES        SUNNY     70  30  23 E5        30.21S
LONG PRAIRIE   FAIR      66  34  30 S3        30.22S
LITTLE FALLS   SUNNY     68  32  26 W5        30.22S
LITCHFIELD     SUNNY     72  37  28 E6        30.22F
BUFFALO        SUNNY     69  34  27 CALM      30.23S
MAPLE LAKE     SUNNY     70  37  30 CALM      30.23S
$$
MNZ037-044-045-052-053-222000-
   East Central Minnesota

CITY           SKY/WX    TMP DP  RH WIND       PRES   REMARKS
PRINCETON      SUNNY     72  36  26 CALM      30.22F
MORA           SUNNY     68  34  28 NW3       30.23F
CAMBRIDGE      SUNNY     72  46  40 CALM      30.20F
RUSH CITY      SUNNY     67  34  29 CALM      30.22F
MOOSE LAKE     SUNNY     68  34  28 CALM      30.18F
HINCKLEY       FAIR      68  37  32 W6        30.21F
CLOQUET        SUNNY     68  27  21 N5        30.19F
MCGREGOR       SUNNY     68  32  26 W5        30.20F
$$
MNZ071>073-080-081-089-090-097-098-222000-
   Southwest Minnesota

CITY           SKY/WX    TMP DP  RH WIND       PRES   REMARKS
MONTEVIDEO     SUNNY     73  30  20 CALM      30.21F
GRANITE FALLS  SUNNY     73  31  21 SE7       30.21F
CANBY          SUNNY     72  33  24 N3        30.21S
MARSHALL       SUNNY     73  34  23 S6        30.20F
REDWOOD FALLS  SUNNY     75  32  20 MISG      30.20F
OLIVIA         SUNNY     70  34  26 SW9       30.21S
PIPESTONE      MOSUNNY   72  32  23 E2        30.20F
WINDOM         SUNNY     73  28  19 CALM      30.21F
WORTHINGTON    MOSUNNY   72  32  23 S8        30.21S
JACKSON        SUNNY     73  28  19 CALM      30.22S
TRACY          SUNNY     73  35  25 CALM      30.21F
SLAYTON        MOSUNNY   73  31  21 CALM      30.22S
$$
MNZ065>067-074>077-082>085-091>093-222000-
   South Central Minnesota

CITY           SKY/WX    TMP DP  RH WIND       PRES   REMARKS
MANKATO        SUNNY     70  34  26 CALM      30.22F
NEW ULM        SUNNY     72  32  23 E3        30.22S
ST JAMES       SUNNY     73  34  23 CALM      30.22S
FAIRMONT       SUNNY     72  30  21 SE6       30.21F
GLENCOE        SUNNY     72  39  30 NE5       30.21F
FARIBAULT      SUNNY     72  32  23 CALM      30.22F
OWATONNA       SUNNY     72  32  23 NE8       30.22S
WASECA         SUNNY     72  36  26 E5        30.23S
ALBERT LEA     SUNNY     73  34  23 SW7       30.21F
$$
MNZ078>079-086>088-094>096-222000-
   Southeast Minnesota

CITY           SKY/WX    TMP DP  RH WIND       PRES   REMARKS
ROCHESTER      SUNNY     70  36  28 NE7       30.23S
RED WING       SUNNY     73  30  20 W3        30.21S
STANTON        SUNNY     71  30  21 NE5       30.21S
DODGE CENTER   SUNNY     70  30  23 NE3       30.23S
WINONA         SUNNY     70  37  30 CALM      30.21S
AUSTIN         SUNNY     70  34  26 CALM      30.22S
PRESTON        SUNNY     69  31  24 CALM      30.23S
$$
ABBREVIATIONS USED IN REMARKS
   TC - TEMPERATURES IN CELSIUS
  WCI - WIND CHILL INDEX
   HX - HEAT INDEX
  VSB - VISIBILITY
$$


USA.gov is the U.S. government's official web portal to all federal, state and local government web resources and services.